TimeEDT,TemperatureF,Dew PointF,Humidity,Sea Level PressureIn,VisibilityMPH,Wind Direction,Wind SpeedMPH,Gust SpeedMPH,PrecipitationIn,Events,Conditions,WindDirDegrees,DateUTC
12:54 AM,30.0,12.9,49,29.87,10.0,NNW,9.2,-,N/A,,Mostly Cloudy,330,2013-03-16 04:54:00
1:54 AM,28.9,12.9,51,29.88,10.0,NNW,9.2,-,N/A,,Scattered Clouds,340,2013-03-16 05:54:00
2:54 AM,28.0,14.0,56,29.88,10.0,North,9.2,18.4,N/A,,Overcast,360,2013-03-16 06:54:00
3:54 AM,27.0,12.9,56,29.88,10.0,North,6.9,-,N/A,,Overcast,360,2013-03-16 07:54:00
4:54 AM,24.1,12.0,60,29.86,10.0,NE,6.9,-,N/A,,Scattered Clouds,40,2013-03-16 08:54:00
5:54 AM,23.0,10.0,58,29.88,10.0,NE,5.8,-,N/A,,Overcast,40,2013-03-16 09:54:00
6:54 AM,21.9,10.0,60,29.90,10.0,ENE,4.6,-,N/A,,Mostly Cloudy,60,2013-03-16 10:54:00
7:54 AM,21.0,8.1,57,29.91,10.0,ENE,6.9,-,N/A,,Overcast,60,2013-03-16 11:54:00
8:54 AM,21.0,8.1,57,29.91,10.0,East,5.8,-,N/A,,Overcast,80,2013-03-16 12:54:00
9:54 AM,21.9,7.0,53,29.91,10.0,NE,4.6,-,N/A,,Overcast,50,2013-03-16 13:54:00
10:54 AM,23.0,8.1,53,29.89,10.0,Calm,Calm,-,N/A,,Overcast,0,2013-03-16 14:54:00
11:54 AM,25.0,10.0,53,29.90,10.0,Calm,Calm,-,N/A,,Overcast,0,2013-03-16 15:54:00
12:54 PM,25.0,10.0,53,29.89,10.0,Calm,Calm,-,N/A,,Overcast,0,2013-03-16 16:54:00
1:54 PM,27.0,10.9,51,29.87,10.0,Calm,Calm,-,N/A,,Overcast,0,2013-03-16 17:54:00
2:54 PM,28.0,12.0,51,29.86,10.0,Variable,3.5,-,N/A,,Overcast,0,2013-03-16 18:54:00
3:54 PM,27.0,12.9,56,29.87,10.0,NNW,6.9,-,N/A,,Overcast,340,2013-03-16 19:54:00
4:54 PM,25.0,12.9,60,29.88,10.0,North,9.2,-,N/A,,Overcast,360,2013-03-16 20:54:00
5:54 PM,25.0,12.9,60,29.89,10.0,NNW,6.9,-,N/A,,Overcast,340,2013-03-16 21:54:00
6:54 PM,24.1,8.1,51,29.91,10.0,NNW,6.9,-,N/A,,Overcast,340,2013-03-16 22:54:00
7:54 PM,21.0,9.0,60,29.93,10.0,WNW,3.5,-,N/A,,Clear,300,2013-03-16 23:54:00
8:54 PM,19.9,9.0,62,29.95,10.0,Calm,Calm,-,N/A,,Clear,0,2013-03-17 00:54:00
9:54 PM,18.0,10.0,71,29.97,10.0,Calm,Calm,-,N/A,,Clear,0,2013-03-17 01:54:00
10:54 PM,17.1,10.0,74,29.98,10.0,Calm,Calm,-,N/A,,Clear,0,2013-03-17 02:54:00
11:54 PM,16.0,10.9,81,29.99,10.0,Calm,Calm,-,N/A,,Clear,0,2013-03-17 03:54:00